Flag for Canada Weather past 2 weeks in Halifax, Nova Scotia, Canada

Now
43 °F

Partly sunny.


Feels Like: 40 °F
Forecast: 37 / 48 °F
Wind: 5 mph from North

Location: Halifax International Airport

Current Time: Apr 25, 2015 at 1:25:50 PM

Latest Report: Apr 25, 2015 at 1:00 PM


Visibility: 15 mi

Pressure: 29.61 "Hg

Humidity: 66%

Dew point: 32 °F

Location of HalifaxLocation

Historic Weather in Halifax — Graph

°F

Halifax temperature yesterday

Maximum temperature yesterday: 41 °F (at 4:00 PM)
Minimum temperature yesterday: 32 °F (at 11:00 PM)
Average temperature yesterday: 36 °F

Past Weeks' High & Low Weather Summary

 TemperatureHumidityPressure
High55 °F (Apr 17, 1:00 PM)100% (Apr 10, 3:00 PM)30.38 "Hg (Apr 10, 3:00 PM)
Low25 °F (Apr 16, 3:00 AM)28% (Apr 20, 2:00 PM)29.47 "Hg (Apr 11, 3:00 PM)
Average39 °F78%29.94 "Hg
* Reported Apr 10 12:00 Noon — Apr 25 12:00 Noon, Halifax, Weather by CustomWeather, © 2015

Note: Actual official high and low records may vary slightly from our data, if they occured in-between our weather recording intervals... More about our weather records

Advertising

Halifax weather history for previous 24 hours

 ConditionsComfort  
Time TempWeatherWind HumidityBarometerVisibility
12:00 PM
Sat, Apr 25
43 °FPartly sunny.5 mph61%29.61 "Hg15 mi
11:00 AM41 °FPartly sunny.8 mph70%29.61 "Hg15 mi
10:00 AM39 °FPartly sunny.5 mph81%29.61 "Hg15 mi
9:00 AM37 °FFog.6 mph93%29.61 "Hg12 mi
8:00 AM36 °FPassing clouds.3 mph93%29.61 "Hg15 mi
7:00 AM36 °FPassing clouds.8 mph93%29.59 "Hg15 mi
6:00 AM34 °FPassing clouds.6 mph93%29.58 "Hg15 mi
5:00 AM30 °FIce fog.6 mph100%29.57 "Hg4 mi
4:00 AM30 °FIce fog.No wind100%29.59 "Hg1 mi
3:00 AM32 °FIce fog.7 mph100%29.58 "Hg1 mi
2:00 AM32 °FIce fog.7 mph100%29.58 "Hg0 mi
1:00 AM32 °FFog.7 mph100%29.57 "Hg1 mi
12:00 AM32 °FFog.7 mph100%29.57 "Hg1 mi
11:48 PM
Fri, Apr 24
32 °FIce fog.5 mph100%29.57 "Hg1 mi
11:00 PM32 °FFog.6 mph100%29.58 "Hg1 mi
10:56 PM34 °FFog.7 mph93%29.58 "Hg1 mi
10:00 PM34 °FFog.6 mph100%29.57 "Hg1 mi
9:49 PM36 °FFog.6 mph93%29.57 "Hg3 mi
9:00 PM36 °FPartly sunny.2 mph93%29.57 "Hg15 mi
8:00 PM37 °FPartly sunny.6 mph93%29.55 "Hg15 mi
7:00 PM39 °FPartly sunny.8 mph87%29.54 "Hg15 mi
6:00 PM41 °FPartly sunny.8 mph81%29.53 "Hg15 mi
5:00 PM41 °FPartly sunny.No wind81%29.52 "Hg15 mi
4:00 PM41 °FPartly sunny.6 mph81%29.52 "Hg15 mi
3:00 PM39 °FOvercast.5 mph87%29.52 "Hg15 mi
2:00 PM39 °FOvercast.7 mph87%29.52 "Hg15 mi
1:00 PM37 °FPartly sunny.8 mph93%29.52 "Hg15 mi
Weather by CustomWeather, © 2015

See weather overviewHow to use our weather pages